Find Starlink 11280

NORAD ID: 61245 Int'l Des: 2024-175 Owner: SPXS Country: US Constellation: starlink operational
LEOCIRCULAR

リアルタイム位置

3D地球を読み込み中...

Starlink 11280について

説明を読み込み中...

次回通過

Passes for default location (London). Set your location on the main map for personalized predictions.

高度履歴

Loading altitude history...

軌道要素

1 61245U 24175C 26125.38837632 .00001586 00000-0 17952-4 0 9991
2 61245 53.1579 136.6223 0001246 80.5091 279.6068 15.69706436 92274
Epoch: May 5, 2026 • Age: 21 hours

現在のステータス

高度 364.5 km
速度 7.69 km/s
衛星直下点 -16.89°S, 155.67°E
打ち上げ日 Sep 25, 2024
運用期間 1.6 years
タイプ internet

技術仕様

分類 Payload
質量 960.00 kg
乾燥質量 910.00 kg
総質量 960.00 kg
長さ 0.30 m
直径 4.10 m
スパン 29.00 m
形状 Box + pan
製造者 SPXS
バスタイプ Starlink V2MD
フェーズステータス In Orbit
所有者/国 SPXS/US

Most Searched